Theta_e
291 287 286 285 289 291 289 289 291 291 287 284 284 283 284 284 285 287 288 290 285 286 286 288 289 289 290 291 292 294 294 292 292 293 294 295 296 296 296 296 296 296 297 301 301 301 300 300 299 298 297 297 296 297 298 298 298 299 299 298 297 298 298 298 298 298 299 298 298 297 295 295 296 295 295 294 294 294 294 294 294 295 295 295 294 293
290 286 285 290 292 292 290 289 288 288 285 286 285 283 285 284 285 289 289 290 286 286 283 284 288 289 290 291 293 294 293 292 293 293 294 295 296 296 296 296 297 298 300 300 299 300 299 298 298 297 296 296 295 296 296 297 298 298 298 298 298 298 297 297 297 298 298 299 298 297 296 296 297 295 294 293 294 294 294 294 294 294 294 295 294 293
285 284 288 290 291 285 285 285 285 287 287 286 285 285 283 284 286 288 289 290 287 284 286 286 285 287 289 291 293 293 294 295 295 294 295 295 296 296 297 297 297 297 297 298 298 299 299 298 296 296 296 295 296 297 296 297 297 298 298 298 298 297 297 297 297 298 298 299 299 299 298 297 297 297 296 296 295 295 293 293 294 294 294 294 294 293
284 284 289 291 290 288 286 282 283 284 284 283 283 282 283 286 284 284 284 282 283 286 286 286 286 287 290 292 292 294 294 294 295 294 295 296 295 296 297 297 296 296 297 298 299 299 299 297 294 294 294 295 295 295 295 295 296 297 297 298 298 297 297 297 297 297 298 298 299 298 296 297 296 294 295 295 294 294 293 292 293 293 293 293 293 293
289 287 287 288 287 287 287 285 286 284 286 285 285 284 284 285 286 285 284 284 284 286 283 284 286 289 289 288 288 290 289 291 293 294 293 294 295 296 297 297 298 296 297 297 298 298 297 295 296 297 297 295 294 295 296 296 296 296 297 298 298 298 297 297 297 297 297 297 296 295 293 294 293 292 293 292 291 292 292 292 291 292 293 293 293 293
287 288 286 285 285 285 285 284 285 286 284 286 283 286 288 288 286 285 285 284 282 283 282 283 284 285 284 287 286 288 286 289 289 291 294 295 294 296 294 295 296 296 296 296 297 297 296 295 296 295 295 294 295 295 296 296 296 296 297 297 297 298 297 296 296 297 296 296 295 293 292 291 291 291 290 290 290 290 290 290 291 292 292 292 293 292
286 287 288 288 285 284 284 284 284 286 286 284 284 285 288 287 285 284 284 284 279 277 284 282 280 281 283 287 286 286 286 289 292 291 293 294 293 293 294 294 294 294 295 295 295 295 296 296 295 295 295 296 295 296 297 295 295 296 296 297 297 297 297 297 296 296 296 295 295 294 294 294 293 292 292 293 294 293 292 293 291 291 291 292 292 292
285 284 286 286 284 284 283 282 285 286 284 283 283 282 284 284 284 284 283 284 282 282 283 284 284 280 282 284 288 289 288 290 291 293 293 293 292 293 294 295 294 295 294 295 295 295 295 295 295 295 297 295 296 297 295 295 294 295 295 296 296 296 296 296 296 295 296 295 295 294 294 294 294 294 294 293 293 294 292 292 291 291 290 291 292 292
286 285 284 284 284 282 284 288 284 288 286 282 284 283 284 284 284 282 283 281 280 280 281 281 284 281 279 285 284 286 287 288 290 291 291 292 292 293 294 295 294 294 295 294 296 295 294 294 295 295 295 296 294 294 294 294 294 295 295 295 295 295 296 295 295 295 295 295 295 295 294 294 294 295 295 294 294 292 292 291 291 291 290 290 291 291
284 287 284 286 284 284 285 283 285 288 285 285 283 283 282 282 281 282 280 282 278 277 280 280 283 279 282 287 284 283 285 286 288 289 290 291 292 292 293 294 294 295 296 295 295 294 294 294 294 294 292 293 294 292 292 292 293 293 294 294 294 294 295 294 294 295 295 295 295 294 294 294 294 294 293 292 292 292 291 291 291 290 290 289 289 290
287 288 286 286 286 287 284 283 283 288 286 283 285 285 282 281 279 278 278 277 276 275 281 281 283 283 279 285 285 285 286 286 287 286 288 290 289 291 290 291 293 294 295 294 294 293 293 294 293 291 292 294 293 291 290 291 291 292 292 293 293 293 294 294 294 294 294 294 294 294 294 294 294 294 292 290 291 291 290 290 290 290 290 289 289 289
286 285 287 285 287 285 285 285 283 283 282 285 283 281 281 283 277 274 269 276 275 274 282 281 283 283 277 281 283 282 282 283 288 289 291 291 292 292 292 292 293 293 294 294 295 295 293 294 295 296 296 294 294 294 292 291 290 291 291 291 291 292 292 293 293 293 294 294 294 294 294 294 294 294 292 291 291 291 290 290 290 290 289 289 289 289
282 284 284 286 288 289 286 286 282 284 285 284 282 284 279 273 274 270 272 270 272 277 278 279 282 279 281 287 285 286 287 288 286 290 291 291 291 293 294 294 293 295 293 293 294 293 295 294 294 294 294 294 294 294 293 291 290 289 290 290 290 291 291 291 292 293 293 293 293 294 294 293 294 293 293 292 292 291 291 291 290 289 288 289 288 288
283 281 283 286 288 288 287 284 280 282 283 283 283 280 276 272 271 271 268 264 269 275 277 280 281 279 284 286 289 292 294 295 291 288 290 291 291 292 292 292 292 293 292 293 293 293 294 294 293 293 293 293 293 293 293 291 290 289 289 289 289 290 290 291 291 292 292 293 293 294 293 293 293 293 293 292 292 292 291 292 291 290 289 289 288 288
279 284 284 285 285 286 289 290 287 283 282 284 283 285 282 279 273 271 272 277 279 278 276 276 277 275 277 284 284 289 290 288 287 287 288 287 288 288 289 289 291 292 292 292 292 292 293 292 291 291 292 292 293 293 293 292 291 289 289 289 289 289 289 289 290 291 291 292 292 293 293 293 293 293 293 293 293 292 291 291 291 291 290 290 289 289
283 285 285 285 285 286 286 286 283 283 282 282 281 281 278 281 281 280 280 277 279 276 275 274 278 278 284 286 288 288 287 288 288 290 287 290 289 289 290 292 292 292 292 291 292 292 292 291 291 291 292 292 292 293 293 292 291 290 290 289 288 289 289 289 289 290 290 291 292 292 292 292 292 292 292 293 292 292 292 291 290 290 290 290 290 290
282 278 284 284 284 284 285 286 288 287 278 282 283 280 282 284 284 281 281 281 278 278 277 279 278 283 285 290 294 291 286 287 284 285 285 287 288 287 289 290 290 290 290 292 291 290 290 290 290 291 291 291 291 291 291 291 290 289 289 289 289 288 288 288 289 289 290 290 290 291 291 292 291 291 291 292 291 291 291 290 290 290 290 290 290 290
284 284 285 284 285 287 283 284 285 284 285 283 278 282 284 285 286 283 277 277 276 276 278 285 282 283 283 281 287 287 291 289 289 292 291 290 287 287 289 288 288 289 290 290 290 289 289 289 289 289 290 290 290 290 290 290 290 290 289 288 288 288 288 289 288 289 289 289 289 290 290 291 291 291 291 291 291 291 290 289 289 289 289 289 289 288
286 278 284 282 285 286 284 286 285 286 287 285 284 288 285 280 279 282 276 273 275 275 278 281 284 283 285 285 290 290 291 292 291 290 286 289 288 288 289 289 290 289 288 287 287 287 287 287 287 288 288 289 289 289 290 290 290 290 290 290 289 288 288 288 289 289 289 289 289 290 290 290 290 291 291 291 291 290 290 289 289 288 289 288 288 287
287 281 283 286 285 288 288 287 280 283 287 287 288 285 287 284 282 280 281 278 280 276 278 277 283 280 288 288 290 290 292 292 292 293 291 288 287 287 286 286 286 285 285 285 285 286 286 286 286 286 287 287 288 288 289 289 290 289 290 290 289 289 289 288 288 288 288 289 289 289 290 290 290 290 290 290 290 289 289 289 288 288 287 287 287 287
285 289 279 288 286 289 284 286 284 287 285 285 284 283 285 284 286 284 283 282 280 278 277 277 276 282 288 293 292 292 292 293 292 289 286 285 284 284 284 284 284 284 284 284 285 285 285 285 285 286 286 287 287 287 288 288 288 289 289 289 289 288 288 289 289 288 288 288 288 288 288 289 289 289 289 289 289 289 289 288 288 288 288 287 287 286
283 286 283 286 286 285 286 290 290 290 291 289 288 285 287 284 282 279 277 286 282 280 277 277 276 283 291 294 294 292 294 291 285 286 283 283 283 283 283 284 283 283 284 284 284 284 285 285 285 285 285 286 286 286 286 287 287 287 288 288 289 289 288 288 288 288 288 288 288 288 288 288 288 288 288 288 288 288 288 288 288 288 287 287 287 286
290 285 285 283 285 286 289 291 292 292 292 291 290 287 290 287 286 281 276 279 284 283 284 282 279 281 293 293 294 294 290 283 283 283 283 282 282 282 283 283 283 283 283 283 283 284 284 284 284 284 284 284 285 285 286 286 286 286 286 287 288 288 288 288 288 288 288 287 287 287 287 287 287 287 287 287 287 288 288 288 288 287 286 286 286 286
291 280 279 284 287 287 289 288 288 287 288 286 286 287 286 284 286 284 284 283 280 282 281 281 279 282 293 292 292 288 285 284 283 282 281 282 281 282 282 282 282 282 283 283 283 283 283 283 284 284 283 284 284 284 285 285 285 286 286 286 287 287 287 288 288 288 288 287 287 287 286 286 287 286 286 286 287 287 288 288 288 287 286 286 286 285
282 282 283 279 280 281 283 283 284 284 283 281 282 283 285 286 285 285 283 281 279 281 282 279 274 281 289 288 287 287 285 283 281 281 281 280 281 281 281 282 282 282 282 282 282 282 282 283 282 283 283 283 283 284 284 285 285 285 285 285 286 286 287 287 288 288 288 287 287 287 286 286 286 286 286 286 287 287 287 287 287 287 286 286 285 285
283 282 283 277 274 272 272 273 274 275 278 282 281 282 284 284 283 283 280 281 278 282 284 279 279 285 289 289 288 287 283 283 282 281 281 281 280 280 281 281 281 282 281 281 282 282 282 282 282 282 282 283 283 283 284 284 284 284 285 285 285 286 286 286 287 287 287 287 287 286 286 286 286 286 286 286 286 286 287 287 287 287 286 286 286 285
281 283 284 284 281 279 281 282 284 284 283 281 282 283 283 285 285 284 283 280 277 281 280 282 283 283 285 288 289 285 280 280 279 279 279 280 281 281 281 281 281 281 281 281 281 281 281 282 281 282 282 282 283 283 283 283 284 284 284 284 285 285 285 285 286 287 287 287 286 286 286 286 286 286 286 286 286 286 286 286 286 286 286 286 286 285
280 281 284 284 283 284 285 285 286 284 281 283 283 282 284 283 283 282 280 278 284 280 275 283 285 282 283 287 288 283 279 280 279 279 279 280 281 281 281 281 282 281 281 281 281 281 280 281 281 281 282 282 282 283 283 283 283 283 283 283 284 285 285 285 285 286 285 286 286 286 286 286 286 286 286 286 286 285 285 286 286 286 286 286 285 285
277 277 281 282 281 284 284 283 282 282 282 282 282 282 281 283 282 280 280 282 282 278 276 281 283 281 283 284 279 279 279 279 279 279 280 280 280 280 279 279 280 280 280 280 280 280 281 280 281 281 281 282 282 283 283 283 283 284 283 283 284 284 284 284 284 285 285 284 284 285 285 285 286 286 285 285 285 285 285 285 285 285 285 285 285 285
281 278 282 280 279 281 281 282 282 281 281 281 281 282 283 282 282 282 282 283 282 280 282 282 282 282 283 278 280 279 280 280 280 281 279 279 278 279 278 278 279 279 280 280 280 281 281 281 281 281 282 282 282 282 282 283 283 283 283 283 283 283 284 284 284 284 284 284 284 284 285 285 285 285 285 285 285 285 285 284 285 285 285 285 285 285
283 276 285 279 277 277 280 281 281 280 280 278 280 281 281 281 281 281 282 282 282 281 282 282 281 281 279 279 279 281 281 282 282 280 279 279 279 279 279 279 279 280 280 281 281 281 282 282 282 282 282 282 282 282 282 282 282 283 283 283 283 283 284 283 283 284 283 283 284 284 284 284 284 285 284 285 284 284 284 284 284 284 284 284 284 284
280 275 280 276 274 273 278 278 278 279 278 277 277 278 278 278 276 278 278 280 279 278 280 280 278 279 277 280 279 280 280 280 280 279 280 281 281 280 280 280 280 280 281 281 281 282 282 282 282 282 282 282 282 282 282 282 282 282 282 282 282 283 283 283 283 283 283 283 283 283 283 283 284 283 284 284 284 284 284 283 283 283 283 282 282 283
277 274 273 273 271 271 276 276 272 271 271 270 271 275 277 278 279 279 280 281 280 282 278 276 278 276 277 280 278 279 280 279 280 280 280 281 281 281 280 279 280 280 281 281 281 281 282 282 282 282 282 282 283 282 282 281 281 281 282 282 283 283 283 283 283 283 283 283 283 283 283 282 282 282 283 283 283 283 283 283 282 282 282 282 282 282
277 275 272 274 269 269 273 270 269 266 263 265 275 277 278 277 278 276 277 279 278 280 278 280 278 279 279 279 278 278 279 279 280 281 282 281 280 280 279 278 279 280 280 281 281 281 282 282 282 282 282 282 283 283 282 282 282 282 283 282 282 282 282 282 283 283 282 283 283 283 282 282 282 281 282 282 282 282 282 282 282 282 282 282 282 281
274 273 269 267 266 267 267 265 266 262 263 273 276 277 278 278 278 277 277 277 276 274 276 275 275 274 277 278 278 278 280 280 281 280 280 281 281 281 280 280 280 281 282 282 282 281 281 281 281 281 281 282 282 282 282 281 282 282 281 282 281 282 282 282 282 282 282 282 282 283 282 282 281 281 281 281 281 280 281 281 281 282 282 282 281 281
272 272 267 266 265 263 265 265 260 258 269 271 276 277 275 273 272 272 272 276 275 276 274 274 276 277 277 278 280 280 280 280 280 281 281 281 282 282 281 280 280 281 281 282 282 283 283 282 282 282 281 282 282 282 282 281 281 281 281 282 281 281 281 281 281 281 282 281 282 282 282 282 281 281 281 280 280 279 280 280 281 281 281 281 281 281
277 271 269 267 273 264 264 263 266 270 272 274 274 275 273 273 273 271 265 272 275 275 275 274 275 278 279 279 280 280 281 280 279 279 281 281 282 282 282 281 281 281 282 283 283 283 284 283 282 282 282 282 282 281 281 281 280 280 280 280 280 280 280 280 280 280 281 281 281 282 282 281 281 280 280 281 280 280 280 280 280 280 281 280 280 280
278 273 275 270 267 274 266 267 267 267 264 265 274 274 276 275 276 276 274 270 276 273 274 275 275 277 278 279 279 279 279 276 273 275 278 280 282 282 281 282 282 282 283 283 284 283 283 283 282 282 282 281 281 281 281 280 280 279 279 279 279 279 279 279 279 280 280 280 281 281 281 281 281 281 280 280 280 280 280 280 280 279 279 278 278 278
276 278 275 272 269 273 270 268 266 265 265 270 271 275 275 276 277 276 271 266 272 270 271 275 276 276 275 277 278 278 276 270 271 275 277 279 279 279 279 279 280 281 282 282 282 282 282 282 282 282 281 281 280 281 280 279 277 278 278 278 278 278 278 278 279 279 279 280 281 281 280 280 280 280 280 280 280 280 280 280 279 279 279 278 278 278
269 269 274 271 270 270 269 267 265 268 260 268 269 272 274 273 276 271 264 266 272 271 271 272 275 277 277 277 277 275 273 268 271 275 278 278 279 279 278 278 279 280 281 281 282 282 281 281 280 279 279 279 279 280 278 277 276 276 277 276 277 276 277 278 278 279 279 279 280 280 279 279 279 279 279 279 280 280 280 280 279 279 278 278 277 277
261 262 267 267 269 270 271 269 271 271 275 272 272 273 274 275 273 263 262 268 272 271 272 273 274 275 275 274 275 272 276 278 278 279 279 277 275 277 278 279 280 280 280 281 281 282 280 279 279 279 279 279 279 278 277 276 275 275 276 276 276 275 276 277 278 277 278 278 278 278 277 278 278 278 279 279 279 280 279 279 279 279 277 277 277 276
261 261 262 263 263 265 266 266 266 269 272 273 274 275 275 272 261 264 271 272 270 274 272 274 275 276 276 276 276 276 277 279 280 280 279 279 279 279 279 278 279 279 279 280 280 279 278 278 277 277 277 277 277 277 275 274 274 275 275 275 275 276 277 277 276 276 276 276 276 276 276 276 277 277 277 278 279 278 278 279 279 278 277 276 276 275
263 263 260 262 263 264 265 264 265 261 270 272 274 272 273 266 268 274 273 273 274 276 276 275 276 276 277 276 277 277 277 278 278 279 279 279 279 279 279 279 278 278 278 278 277 277 276 276 276 276 276 276 276 276 275 272 273 274 274 274 275 276 276 276 275 275 274 274 274 274 275 275 275 275 276 276 277 277 277 278 278 277 276 275 275 274
269 264 264 266 269 264 264 263 262 267 272 273 272 267 267 273 275 276 276 275 277 277 276 276 275 276 276 276 276 276 276 276 277 278 278 279 279 279 279 279 278 277 277 275 275 275 272 273 274 274 274 275 274 274 273 272 273 273 273 273 275 275 275 274 274 273 273 273 273 272 272 273 273 274 274 275 275 276 277 277 277 277 276 275 274 274
270 269 271 266 269 266 262 267 271 269 271 273 273 275 277 278 278 278 277 276 275 276 275 275 276 276 276 276 275 275 275 276 277 278 277 278 279 278 277 276 275 275 274 274 274 273 271 272 272 272 272 273 273 272 272 271 271 271 271 273 274 273 273 272 272 272 271 271 271 271 271 271 271 271 272 273 274 275 276 276 277 276 276 275 274 274
272 271 269 270 269 273 274 275 276 275 276 277 278 278 277 278 278 278 276 275 276 277 277 276 276 275 275 275 274 274 275 276 277 277 277 276 275 275 275 274 273 272 272 272 272 272 271 270 269 269 270 271 272 272 271 271 270 269 271 272 272 272 271 270 270 270 270 270 270 270 270 269 269 270 270 271 273 274 276 276 276 276 276 276 275 274
272 273 270 270 272 268 265 273 274 274 276 277 277 278 278 277 277 277 276 277 277 276 276 274 274 274 274 274 274 274 275 276 275 274 273 272 272 272 271 271 271 271 271 270 271 270 270 269 269 269 269 269 270 271 271 270 270 270 271 271 271 270 269 269 269 269 268 268 268 268 268 268 268 269 269 270 272 273 275 275 275 275 275 275 275 275
269 274 270 271 271 269 269 274 275 276 276 277 277 276 276 277 278 278 278 275 274 274 273 272 272 272 273 272 272 270 271 271 269 270 270 270 270 270 270 270 270 270 270 270 270 268 267 267 267 267 268 268 269 270 270 269 269 270 269 269 269 268 267 266 267 267 267 267 267 267 267 267 268 268 268 269 270 271 272 273 274 274 274 274 274 274
272 272 260 267 269 272 274 275 275 276 276 276 277 277 277 278 277 275 273 271 271 270 269 269 271 270 270 269 269 268 267 268 268 268 268 268 268 268 269 269 269 269 269 268 268 267 267 267 266 267 267 267 268 269 268 268 268 269 268 269 267 265 264 265 266 266 265 265 266 265 266 266 267 267 267 268 269 270 271 271 272 273 274 275 276 276
268 270 273 269 267 268 269 272 274 268 268 274 275 274 273 271 271 271 270 268 268 267 267 266 267 268 268 268 267 267 265 267 267 267 266 267 267 267 267 267 267 266 266 267 267 266 266 266 265 265 266 266 267 267 267 267 267 267 267 265 264 263 263 264 264 264 264 264 264 265 265 265 266 266 267 267 267 267 268 271 274 273 273 273 277 279
272 273 272 269 269 268 273 275 275 274 274 275 275 270 269 269 269 269 268 267 267 267 266 265 264 265 265 266 267 266 265 266 265 266 265 265 265 266 266 265 265 265 265 265 265 264 264 265 265 264 264 265 265 265 264 264 264 264 265 265 264 264 263 263 262 262 263 263 263 264 264 264 264 265 265 265 265 266 266 266 268 273 275 276 276 278
Wind_Speed
2 6 8 8 13 14 7 14 18 14 1 1 2 4 9 9 10 11 9 13 2 5 11 18 18 15 14 14 15 16 12 9 14 20 20 18 18 16 14 14 16 16 20 15 7 7 5 7 7 7 6 7 8 9 9 11 13 13 15 13 16 13 13 10 10 10 10 11 9 8 10 12 10 11 11 10 9 9 10 11 11 11 10 11 11 11
3 7 7 13 17 12 9 8 6 6 4 5 7 6 11 4 16 11 10 6 1 2 3 7 15 17 18 15 17 16 14 17 18 16 18 22 21 16 17 18 18 17 8 7 10 7 5 6 5 5 5 4 8 10 10 13 15 14 13 15 16 10 11 12 13 12 11 11 12 14 15 14 12 11 12 13 12 12 11 12 11 10 11 11 11 11
4 9 12 17 8 4 1 2 3 7 8 8 9 7 7 10 12 10 14 10 5 2 11 10 15 12 15 17 19 19 21 16 12 8 17 20 20 18 17 19 13 9 9 8 10 9 5 4 4 5 5 7 10 9 10 13 10 11 13 15 12 11 12 14 15 12 12 11 12 10 7 8 6 6 6 4 5 5 7 9 9 8 9 11 10 11
6 4 16 15 0 4 1 3 3 0 2 5 6 4 11 5 4 9 2 2 1 1 10 9 19 16 15 21 23 22 13 12 11 12 16 18 18 23 22 8 7 10 12 14 14 15 5 3 4 3 7 9 8 9 8 9 12 11 12 13 12 13 14 13 14 15 13 11 9 8 2 5 6 5 6 7 6 8 7 9 10 9 10 10 10 11
14 2 3 4 6 6 9 4 1 3 11 7 9 5 10 12 11 9 7 7 7 5 2 9 13 13 9 8 7 6 5 6 15 12 14 18 21 14 12 14 5 7 8 12 14 14 5 6 4 7 9 6 7 9 10 10 10 9 14 14 14 13 14 14 14 15 12 9 8 7 4 4 5 3 7 8 8 10 10 8 10 11 9 11 9 10
10 5 3 3 4 6 6 5 7 7 13 8 5 11 18 13 11 10 8 8 6 8 5 4 12 3 2 1 6 6 4 2 6 8 16 19 3 2 8 10 4 3 7 9 12 10 6 4 8 7 8 7 8 10 11 9 10 10 10 10 11 11 11 13 14 14 12 12 11 10 10 10 9 9 10 14 17 12 13 14 6 7 12 10 10 10
6 1 5 8 5 4 5 5 6 8 12 6 8 12 13 10 7 7 10 5 6 2 2 4 3 16 3 4 3 6 3 8 11 12 17 7 6 6 9 6 6 8 8 5 6 7 7 8 7 8 7 7 7 11 7 6 8 9 9 8 11 11 10 10 11 13 12 11 11 15 16 14 11 12 10 8 4 7 7 5 10 10 9 12 12 12
1 1 1 2 4 5 4 6 7 11 5 9 1 4 5 5 6 6 3 5 8 2 4 3 5 6 19 5 8 6 2 10 13 14 11 6 6 9 9 10 9 8 5 6 5 5 5 7 7 9 9 6 8 8 6 6 6 8 10 9 9 9 10 9 9 13 14 14 14 15 15 14 12 13 13 9 8 6 8 9 10 9 10 10 11 10
5 2 3 3 2 3 7 9 5 12 8 5 1 7 3 5 5 2 3 5 3 6 10 2 2 2 9 3 4 3 3 10 13 13 9 10 10 10 8 8 7 6 5 4 2 1 8 6 7 8 9 9 8 6 6 6 6 6 6 7 7 9 9 8 11 12 14 13 13 12 10 14 13 13 8 6 7 7 7 10 8 9 8 8 9 9
2 2 7 9 7 8 8 3 11 12 7 3 6 7 6 6 5 2 3 1 4 3 13 6 5 3 17 6 5 4 1 7 9 7 9 8 10 10 9 9 7 6 2 3 2 4 8 6 7 7 8 10 6 6 6 6 5 5 4 6 7 9 8 8 11 13 14 14 11 12 14 16 12 9 5 5 8 8 8 9 10 9 8 9 9 9
2 3 5 5 8 6 4 1 4 10 4 5 4 3 4 6 3 4 6 3 2 5 11 14 11 5 10 4 10 8 7 8 6 4 5 7 6 7 6 7 9 9 6 5 2 5 5 8 7 6 7 7 8 6 6 6 6 5 4 5 6 8 6 7 9 11 14 14 14 14 15 16 14 12 9 8 9 8 8 9 9 8 8 7 9 8
1 1 1 5 2 4 3 3 3 0 2 3 1 2 3 3 6 2 4 2 3 8 9 10 13 9 9 3 3 6 5 5 2 3 9 10 11 10 7 7 7 7 6 2 6 13 6 9 13 13 12 12 11 10 10 9 7 5 4 4 6 6 6 5 6 9 11 11 13 13 13 13 12 10 9 10 11 9 10 9 9 8 7 9 9 9
3 8 3 4 3 9 2 2 2 2 1 4 3 1 3 5 7 3 2 1 6 12 2 1 7 2 16 11 1 6 9 9 7 6 7 9 10 10 10 8 7 4 10 10 7 8 10 11 11 11 13 13 13 12 11 10 7 5 4 4 6 8 5 6 6 9 10 11 12 12 12 11 10 11 11 11 11 9 8 7 8 8 10 7 8 10
8 1 1 4 1 4 7 6 3 2 6 7 7 5 5 3 4 7 4 2 6 7 3 4 0 7 8 9 9 15 19 12 3 8 8 7 9 7 8 11 11 9 7 7 7 7 10 10 10 10 10 11 12 13 12 11 9 7 5 4 5 8 4 5 6 8 9 11 11 10 10 10 9 10 10 9 9 8 7 5 8 8 8 9 11 10
7 10 4 5 3 3 8 11 6 3 8 11 2 10 9 8 5 5 5 10 9 6 3 4 4 8 1 5 2 9 6 2 2 2 2 4 6 6 9 8 9 6 5 5 7 8 11 12 11 11 11 10 11 13 13 11 11 9 7 5 6 7 6 6 7 7 10 9 10 9 9 9 8 9 8 8 8 8 8 7 7 7 6 8 7 8
9 11 4 1 2 2 7 2 4 4 2 3 4 3 1 9 4 9 3 2 2 1 1 1 7 4 7 2 7 8 9 6 5 8 3 7 4 5 7 8 7 7 6 9 11 13 14 11 11 12 13 13 12 14 13 15 13 12 10 7 6 6 7 6 7 8 8 9 7 8 10 10 9 7 7 6 6 7 7 9 8 8 8 7 6 7
0 6 1 4 3 1 4 1 1 2 4 1 5 5 7 3 4 4 4 1 2 1 10 4 6 8 6 11 14 7 2 2 1 3 3 5 5 3 6 5 5 7 11 11 12 11 10 11 14 13 12 13 14 15 16 15 13 13 12 10 9 7 6 7 7 8 7 7 7 9 9 8 8 9 10 10 10 9 7 7 8 8 8 8 7 6
7 7 0 4 1 1 1 1 1 2 2 6 1 7 1 2 1 2 5 3 1 8 8 6 13 10 4 12 3 6 11 4 2 7 8 7 4 4 4 6 7 8 10 12 12 10 11 11 12 12 12 14 15 16 17 17 14 12 11 11 11 10 9 8 7 8 8 8 8 8 9 9 9 9 10 9 9 7 7 7 8 8 8 10 9 8
3 5 2 1 3 3 2 1 3 0 1 3 3 2 0 4 1 2 4 3 6 8 5 4 7 10 7 15 14 18 18 19 5 1 3 7 8 9 10 11 10 11 12 12 11 11 10 9 8 9 13 15 17 16 15 15 15 15 15 14 12 12 10 9 7 7 7 7 7 6 8 9 9 9 9 8 8 7 9 9 9 10 11 7 9 9
4 1 4 0 2 3 4 1 3 1 1 0 0 2 1 1 4 4 3 3 2 9 5 8 8 11 7 10 11 16 18 13 11 11 9 9 10 11 12 12 13 13 11 9 8 7 6 7 11 16 18 19 17 16 15 15 15 17 15 15 15 14 13 11 10 8 8 7 7 7 7 8 8 8 9 9 8 9 10 10 10 10 10 12 9 10
1 0 5 1 3 4 5 2 6 6 6 2 2 2 0 1 0 1 2 4 8 9 10 10 12 6 7 8 13 14 10 11 13 11 11 12 11 11 9 9 8 9 11 11 11 11 13 15 14 14 12 12 11 12 13 13 14 13 14 16 15 15 16 16 14 9 8 7 7 7 9 9 7 9 8 8 9 9 9 8 9 9 10 7 10 9
1 2 8 5 7 8 12 7 7 7 9 9 8 9 10 8 9 10 13 4 7 8 9 9 15 6 6 4 8 4 8 12 13 10 11 11 12 12 11 12 11 10 9 9 9 9 10 11 11 10 9 9 10 12 14 14 13 15 16 14 14 14 14 14 15 13 11 8 7 8 9 9 7 7 7 8 8 10 9 9 9 9 7 10 8 10
5 3 4 13 11 14 13 12 8 11 10 11 9 9 10 9 6 8 13 9 6 9 8 13 13 9 1 3 8 7 10 11 10 10 9 8 9 10 10 10 10 10 11 11 13 12 11 11 11 10 11 11 11 11 11 12 13 13 13 14 14 14 15 13 12 12 11 10 8 9 8 8 8 7 8 9 8 10 10 9 8 7 9 9 9 9
3 1 1 10 7 8 9 8 3 2 5 3 4 5 4 8 10 12 12 4 6 7 10 8 11 3 1 4 3 14 8 9 8 10 7 6 6 7 9 11 12 13 12 11 10 10 11 10 11 12 13 13 13 13 12 10 10 11 11 12 12 14 15 14 13 12 12 12 11 9 8 8 8 7 8 9 8 10 9 9 8 7 9 9 9 11
1 4 3 4 5 8 8 5 1 3 3 0 1 2 2 3 6 7 4 0 7 5 9 11 12 4 1 2 8 11 10 10 10 8 8 8 7 7 7 7 7 8 10 12 12 10 9 10 13 12 12 12 12 12 12 11 11 11 11 10 11 12 12 11 11 11 11 11 12 12 10 10 8 8 9 9 8 9 9 9 8 7 10 9 10 11
1 2 6 11 11 12 9 10 10 3 2 1 1 3 5 4 3 7 7 3 10 1 9 10 12 8 5 8 8 10 10 7 5 7 5 7 6 8 7 7 6 7 7 7 8 11 12 10 9 10 11 10 10 10 11 12 12 11 10 10 9 9 10 12 11 11 11 11 11 11 12 12 10 9 10 10 9 9 9 8 8 9 8 9 11 10
1 2 2 7 10 12 11 7 2 3 3 4 3 5 6 4 5 4 6 8 9 8 9 9 13 14 14 12 11 9 9 11 9 7 9 8 8 6 5 5 5 5 6 7 6 5 6 10 11 10 10 9 8 8 8 9 10 11 11 13 12 10 10 10 10 10 10 11 11 10 11 11 11 11 10 9 9 8 7 8 8 9 9 9 11 11
1 4 7 10 10 10 11 11 7 2 8 6 8 7 7 11 10 11 10 12 9 12 16 8 11 10 8 12 13 7 4 3 4 5 6 7 7 8 7 7 9 9 8 7 9 10 10 9 9 10 9 10 10 9 8 7 7 8 10 11 12 12 11 10 10 12 12 12 11 11 12 11 10 10 10 10 10 9 8 7 7 8 9 8 10 11
2 4 2 5 8 6 5 6 7 9 5 8 8 10 12 12 13 15 16 12 9 12 15 15 18 21 17 8 5 4 6 3 2 4 4 5 5 7 9 11 11 11 10 9 9 8 8 9 8 9 9 9 9 11 11 10 11 10 9 9 9 10 11 11 11 11 12 12 13 12 10 10 9 9 9 9 9 9 9 9 8 8 8 8 9 9
0 3 6 3 3 5 9 11 9 11 12 12 11 12 11 13 16 16 16 15 17 18 17 18 18 22 11 3 3 2 5 4 1 0 2 2 5 4 5 6 7 8 9 9 9 8 7 7 7 7 9 10 10 11 12 12 12 12 12 13 12 11 11 10 11 10 11 12 12 12 13 12 11 11 11 11 11 10 10 9 9 8 7 8 8 9
1 6 5 3 6 7 9 12 12 11 10 14 12 14 13 15 17 15 16 18 18 17 16 17 16 14 4 2 1 0 2 3 2 4 3 3 3 4 5 6 5 6 8 8 8 8 8 8 8 8 9 10 9 10 9 8 9 10 11 11 11 11 10 9 9 10 10 11 10 11 12 13 14 13 12 10 10 9 10 11 9 8 7 7 7 8
3 4 4 3 7 9 8 11 9 8 9 11 12 15 19 19 17 14 16 11 12 14 13 12 10 6 2 1 3 2 2 2 3 6 6 4 3 4 5 6 6 7 7 7 7 7 9 10 10 10 10 9 9 8 8 8 7 7 9 9 10 9 8 8 8 8 8 8 9 9 10 11 12 13 13 12 11 10 9 8 8 8 7 7 7 7
2 1 3 6 10 12 14 9 3 2 7 14 16 21 20 19 19 17 14 12 9 0 5 10 8 4 4 2 1 2 2 5 3 7 6 6 6 5 6 6 5 6 6 6 7 7 7 8 8 8 8 7 7 7 7 6 6 7 8 9 9 8 8 8 8 8 8 9 9 9 9 9 9 9 11 12 12 11 10 9 9 8 8 8 7 5
4 7 9 5 8 9 11 5 1 3 12 16 9 2 7 12 7 8 7 5 5 4 3 1 4 4 4 4 5 6 5 5 5 7 6 7 7 7 7 6 5 5 6 6 6 7 7 6 6 6 7 7 7 6 6 5 5 7 7 8 7 8 8 9 9 8 9 9 10 9 9 10 9 10 10 10 11 11 11 10 10 8 7 6 5 5
8 6 6 3 5 8 4 4 8 13 15 6 2 3 1 2 3 5 3 3 4 2 6 4 3 1 5 6 8 8 8 8 7 8 10 9 8 8 8 7 6 5 7 7 7 6 6 7 6 6 7 7 7 7 6 6 5 7 7 7 8 8 8 9 9 9 9 10 9 9 9 9 9 10 10 10 10 10 11 11 11 10 8 6 7 6
8 10 2 2 3 3 0 4 5 8 2 6 6 3 1 5 1 4 5 6 4 4 6 3 6 6 5 6 7 8 8 8 5 8 11 11 10 10 8 8 7 6 7 7 8 9 8 7 8 8 8 6 6 8 6 7 6 7 8 8 8 8 8 8 8 8 8 10 10 10 9 9 9 10 10 9 9 10 11 11 10 11 10 8 7 5
11 3 3 5 4 6 4 6 12 6 16 13 11 2 3 2 2 3 4 5 7 5 5 3 5 6 7 7 8 7 3 1 5 8 10 10 10 10 10 8 7 8 8 8 8 9 8 7 7 8 7 7 7 7 7 6 6 7 8 9 9 8 9 8 8 8 8 8 10 10 10 10 10 9 9 9 9 10 10 10 12 11 8 8 7 6
8 10 7 6 5 7 5 7 7 5 8 4 2 2 1 2 3 2 6 5 4 8 4 5 5 8 8 8 7 6 0 2 7 9 5 7 8 10 8 7 7 8 8 9 8 7 8 8 7 7 7 8 8 8 6 5 5 7 8 9 9 9 10 9 9 8 7 9 9 10 9 10 10 10 10 10 11 10 9 8 7 7 7 8 10 9
3 7 6 7 4 4 7 8 7 8 7 3 5 3 4 3 3 1 4 6 3 7 7 8 10 8 7 6 8 2 1 3 8 9 9 7 9 7 7 8 8 9 9 9 9 9 9 8 8 8 7 8 10 10 5 5 5 6 9 9 9 9 10 10 9 8 8 10 10 10 9 9 10 10 10 10 10 10 10 9 8 7 5 6 6 8
5 3 6 7 9 7 7 8 10 4 2 2 1 3 5 2 4 2 8 6 4 6 7 7 10 9 7 7 5 3 6 6 8 10 9 9 10 9 7 8 8 8 9 9 8 9 9 7 5 7 8 9 10 8 6 5 5 6 8 9 8 9 10 9 8 8 8 9 9 8 9 10 10 11 11 11 11 10 9 8 8 8 7 6 5 6
1 2 2 8 8 9 13 9 7 7 4 3 6 6 2 2 1 2 12 3 6 8 7 4 7 8 6 6 5 6 9 11 11 12 10 6 4 7 9 7 9 9 9 9 9 8 6 6 7 9 10 9 8 7 6 4 4 8 8 9 10 11 10 9 7 7 8 8 8 9 10 10 9 12 13 11 10 10 9 8 8 8 7 8 6 5
3 1 6 0 4 8 7 9 10 7 6 5 5 4 5 4 1 10 2 3 2 5 3 7 8 9 8 9 8 9 10 10 11 11 11 12 13 12 10 10 9 9 8 7 7 5 5 5 6 8 9 8 8 8 5 4 6 8 9 8 12 12 8 8 7 7 7 9 9 9 10 10 11 11 11 11 11 11 12 10 9 8 7 6 6 8
4 3 5 5 3 0 1 6 6 7 1 3 2 2 1 4 6 1 3 4 3 9 10 7 5 8 7 9 10 10 9 10 11 12 12 12 12 13 14 13 12 12 10 7 7 5 3 5 7 8 9 9 8 7 6 5 8 10 10 12 15 9 8 8 7 7 8 9 10 10 10 10 12 12 11 11 12 13 13 11 9 9 7 7 7 8
3 2 3 6 5 8 5 6 4 3 1 1 1 3 3 5 4 6 7 13 10 9 9 8 5 7 7 9 9 8 9 10 11 11 11 11 12 13 13 12 10 7 7 6 5 6 3 5 7 9 10 10 8 7 6 6 9 11 12 16 13 8 7 6 8 8 10 10 10 10 10 10 11 11 11 12 12 13 13 12 10 9 7 6 7 7
5 9 7 9 3 3 6 7 5 2 3 4 3 7 10 12 11 11 9 8 9 9 5 5 8 7 7 7 7 8 10 11 12 12 11 13 12 10 9 7 6 6 7 8 9 7 4 7 9 10 11 11 9 8 7 6 9 12 15 14 8 8 8 8 9 10 11 12 11 11 10 10 11 11 11 12 11 12 12 11 9 9 8 6 7 7
4 6 1 3 5 4 7 13 11 7 10 16 14 11 11 13 12 9 8 9 7 9 6 8 6 6 7 5 5 7 9 11 12 11 10 8 7 8 6 6 7 6 7 8 8 8 6 7 7 9 13 15 13 10 7 7 7 13 15 11 7 7 7 9 10 11 13 12 11 12 11 12 13 13 12 12 11 11 11 11 10 9 9 7 8 8
7 7 3 6 7 6 10 7 6 12 14 13 14 14 11 7 9 8 8 9 9 7 7 3 3 4 5 6 6 7 9 8 8 8 8 8 9 8 8 9 9 8 9 10 10 7 8 8 10 12 13 15 16 12 8 8 8 10 10 10 9 8 8 10 11 12 12 13 12 11 11 12 12 12 12 13 11 10 10 9 9 9 9 9 9 9
9 4 5 9 11 10 16 16 13 11 13 12 11 11 12 12 11 10 8 4 3 2 3 4 4 2 4 3 4 5 7 6 5 7 8 9 10 10 9 9 11 12 12 9 8 6 7 9 10 12 14 15 16 13 12 11 11 10 10 9 8 8 8 9 10 11 13 14 13 12 12 12 13 14 12 12 11 11 11 10 9 9 10 10 9 9
4 4 3 5 7 12 12 13 16 14 13 15 15 11 11 10 9 6 3 3 4 6 6 4 4 3 3 2 3 4 6 9 5 6 9 10 10 10 9 10 11 11 12 12 10 8 9 10 12 13 14 16 15 14 14 14 13 11 10 9 6 6 7 10 12 12 14 15 13 15 14 13 12 12 12 12 12 11 11 11 11 12 12 13 10 10
2 12 9 2 8 11 12 15 10 6 9 9 8 2 1 3 2 2 3 5 5 6 6 8 6 2 2 2 4 5 5 8 7 5 8 10 11 11 11 11 12 12 13 11 10 12 13 13 12 14 16 16 14 14 15 15 14 11 8 7 6 7 10 13 14 15 16 15 14 14 14 13 12 11 12 11 12 12 14 16 21 17 15 15 18 22
9 12 7 9 10 14 15 14 7 7 8 10 7 4 4 4 3 3 4 3 3 4 4 5 8 8 3 2 3 5 5 7 10 8 9 10 12 11 10 11 12 13 14 14 14 16 15 15 14 14 16 15 13 14 15 15 16 14 12 10 11 12 15 16 15 16 16 15 14 14 13 13 13 13 12 12 12 12 13 15 15 21 27 26 27 26
Wind_Direction
129 158 168 190 225 228 209 198 215 234 41 117 165 224 250 262 277 263 271 264 108 292 239 262 268 269 267 267 272 272 272 251 263 270 275 276 279 277 270 262 256 257 255 273 302 293 277 254 240 238 227 230 230 230 214 215 214 209 207 198 211 201 192 184 180 184 181 184 183 191 200 207 191 194 190 193 196 194 196 188 190 187 181 176 178 179
82 199 213 218 229 231 222 222 246 289 293 269 267 265 267 226 268 259 281 285 122 215 270 238 271 270 272 273 271 271 269 261 250 264 274 279 272 276 270 269 261 258 297 317 294 280 267 276 277 272 253 236 237 231 210 215 214 210 208 207 214 188 192 195 193 192 193 195 190 186 194 194 189 187 187 197 192 196 195 194 193 189 183 178 180 177
201 206 222 231 238 62 60 154 184 205 238 252 243 265 297 261 268 278 263 281 283 173 271 267 266 264 269 266 264 258 255 259 265 225 257 267 276 275 273 258 283 333 303 303 284 287 292 319 316 295 273 253 235 244 216 224 215 210 207 216 209 196 197 202 199 193 201 199 201 202 207 201 199 212 222 231 201 186 191 195 194 190 186 184 182 177
264 254 238 242 122 244 305 78 114 120 243 233 259 264 250 283 306 301 265 10 318 222 296 297 292 280 257 249 249 256 262 268 260 247 244 250 263 260 260 323 327 317 319 307 302 298 357 19 9 304 260 247 247 251 247 227 218 215 215 214 202 203 202 202 202 204 206 200 201 208 141 182 195 190 171 187 177 190 186 196 191 195 190 183 184 179
226 204 241 225 201 189 230 214 165 252 265 215 219 254 275 260 245 233 279 337 307 279 221 309 281 285 236 259 274 279 279 234 263 265 256 251 245 272 313 291 291 286 298 294 301 297 17 21 336 271 262 256 248 246 245 233 221 216 217 211 205 205 201 202 200 200 190 174 168 155 88 102 118 98 163 180 206 196 191 190 194 194 176 188 184 175
271 260 122 98 179 189 204 252 228 213 261 259 196 203 240 258 280 267 291 352 350 309 353 31 327 293 347 242 265 277 353 269 251 234 252 251 39 228 266 278 322 248 229 260 273 301 20 312 276 282 278 258 248 251 245 233 231 226 225 212 209 209 204 203 199 192 182 188 179 164 171 177 185 190 182 195 200 178 183 198 148 151 192 181 185 185
229 258 179 211 168 170 185 215 232 172 246 297 264 209 235 248 260 277 286 1 292 230 294 46 92 291 134 211 250 260 249 265 267 237 249 288 341 315 281 300 281 284 291 274 292 341 355 309 293 286 271 262 267 266 269 257 246 238 235 217 209 208 207 203 196 186 186 190 191 194 197 197 193 199 212 211 180 185 193 161 182 189 175 187 187 187
140 326 82 81 119 139 156 234 231 171 214 261 233 184 201 223 233 247 236 204 254 273 273 177 170 252 298 198 214 241 184 245 256 266 285 324 310 299 300 298 309 291 290 297 1 13 296 281 278 288 299 290 267 287 309 274 258 239 234 219 210 209 209 196 188 190 194 197 199 200 204 205 207 210 213 186 194 172 172 187 186 184 190 189 192 183
154 172 156 123 117 134 196 215 168 164 169 218 231 147 157 200 210 158 172 214 243 14 301 153 117 282 258 273 345 141 155 258 261 267 290 291 281 265 272 283 268 278 284 307 17 233 236 255 300 307 308 306 307 302 293 285 268 253 245 232 216 213 204 192 186 193 199 203 203 205 205 212 219 218 215 172 175 176 175 186 186 190 187 188 194 192
281 187 204 162 141 210 222 209 167 167 200 255 112 82 78 78 68 121 120 118 319 52 279 167 190 222 280 271 146 4 237 253 248 269 282 290 293 300 306 299 303 304 22 71 354 304 318 317 295 285 294 304 321 326 316 312 303 282 254 231 219 221 206 195 191 192 197 202 201 207 212 218 219 212 188 160 177 183 179 192 192 188 181 187 188 192
225 355 161 128 198 217 169 178 172 192 167 121 110 66 16 42 53 33 70 95 44 264 255 167 201 170 281 271 168 146 204 202 217 286 291 287 273 281 294 287 295 305 329 61 236 233 296 341 304 273 302 317 340 346 348 348 347 328 303 267 245 237 224 204 200 197 202 200 201 210 212 215 216 208 191 177 191 184 182 197 194 188 186 178 190 185
195 76 155 251 74 83 101 96 32 85 139 135 111 140 39 329 14 30 344 52 191 266 260 182 180 180 218 304 296 240 265 217 164 333 288 294 298 305 295 280 281 299 329 351 345 354 335 1 343 340 350 357 342 349 8 359 358 349 322 309 269 270 240 223 212 209 212 209 213 217 215 217 218 209 204 206 205 194 194 196 194 186 177 191 190 188
270 208 243 313 224 161 139 164 310 37 52 102 98 84 230 276 24 322 46 285 192 227 274 232 154 7 247 238 217 281 264 257 205 229 260 266 277 290 292 300 310 327 21 13 339 333 359 1 334 340 341 346 353 350 354 358 347 349 331 302 280 267 252 231 215 214 216 217 220 219 218 220 213 214 210 212 216 203 205 200 200 187 199 180 189 197
281 275 140 231 354 204 140 164 241 256 197 135 164 160 111 255 234 257 256 263 306 298 260 160 184 253 274 297 220 243 257 272 228 211 227 235 250 276 314 328 320 345 6 337 343 332 7 346 327 343 344 347 344 350 353 354 357 346 329 309 273 276 270 239 224 221 221 223 225 223 222 219 213 220 214 216 216 210 209 202 212 206 204 199 204 191
314 297 262 152 239 182 180 206 185 170 155 198 85 161 193 168 162 234 193 239 245 239 354 279 113 231 173 246 272 234 263 260 258 283 294 325 280 289 284 288 291 6 325 337 346 355 360 344 339 346 353 351 349 351 357 358 356 351 333 327 296 288 283 248 235 229 228 228 225 225 225 223 216 217 217 219 214 212 208 206 214 211 209 216 214 214
215 251 262 133 2 118 190 229 107 100 81 205 157 85 76 235 123 243 195 214 291 29 329 219 209 207 216 244 284 235 248 278 282 267 320 276 286 292 311 302 353 329 344 5 17 15 4 355 355 1 3 2 360 0 3 2 357 353 346 330 308 288 291 275 256 243 237 238 233 228 225 223 220 221 223 224 212 210 190 199 202 209 212 219 214 218
95 271 291 0 62 161 227 27 324 119 227 219 97 202 214 178 154 287 287 225 96 315 250 160 282 276 287 283 273 299 35 39 69 232 242 256 281 347 284 345 317 355 0 24 34 36 14 5 11 12 9 9 11 12 9 4 358 353 345 342 333 316 301 287 273 260 252 246 236 233 230 227 221 215 214 218 218 214 201 200 205 209 209 207 209 208
236 265 270 98 270 349 140 48 37 345 146 97 158 239 231 174 105 176 235 336 224 234 258 224 263 279 340 284 330 343 308 264 27 345 337 338 359 325 349 346 350 5 31 39 43 37 24 19 13 9 9 13 17 17 12 7 2 3 1 351 338 335 325 305 288 271 256 247 241 238 231 227 223 225 224 218 218 205 202 200 199 208 210 208 197 187
84 322 327 309 155 244 57 92 335 326 4 196 191 284 158 261 258 274 85 262 250 248 271 218 292 278 281 281 296 296 292 296 324 105 352 339 343 0 357 8 23 27 39 39 31 29 23 17 13 12 19 18 18 15 11 7 7 8 11 6 1 344 323 306 295 270 262 248 245 242 239 232 229 224 225 224 214 199 204 207 207 208 209 193 194 192
21 246 298 126 84 317 334 106 277 287 333 288 344 333 197 108 234 280 208 168 15 272 282 252 237 260 230 261 279 281 283 309 322 338 23 28 34 20 16 16 16 16 25 34 36 31 23 17 23 24 20 16 11 8 5 7 8 10 6 8 5 359 353 339 318 298 276 259 250 251 247 242 234 232 227 220 213 214 213 210 208 209 204 205 185 194
303 6 253 172 208 347 293 193 192 209 236 250 167 255 310 211 158 87 305 266 259 273 261 278 262 249 238 244 260 274 302 322 353 37 38 24 27 38 35 24 18 15 17 19 20 18 18 20 22 23 24 18 9 8 9 10 9 7 6 6 6 4 356 352 340 322 295 290 273 261 254 249 239 239 232 227 221 225 222 216 212 213 214 193 203 181
357 181 252 255 284 236 249 235 213 209 225 238 230 231 233 250 274 268 269 164 228 226 250 253 261 242 255 249 261 309 315 25 44 68 51 24 20 17 16 15 17 19 24 26 25 24 23 24 24 24 25 21 16 14 12 8 10 8 6 3 1 2 3 355 347 340 324 306 286 272 268 261 253 242 235 231 228 229 227 224 220 213 198 208 204 190
179 183 207 256 246 258 257 254 231 223 234 237 226 245 213 229 208 234 259 244 236 225 239 248 270 242 157 272 286 315 34 57 45 58 63 35 21 14 10 10 12 20 15 12 16 18 21 23 22 21 23 20 19 15 10 9 9 7 2 0 359 2 359 355 347 342 333 323 311 293 283 281 267 252 244 238 235 236 234 234 231 209 210 209 198 194
79 129 207 259 279 288 280 280 300 177 208 275 276 239 230 232 220 235 241 263 265 265 242 257 243 287 112 278 1 60 76 61 51 50 57 50 35 16 15 10 9 10 12 14 18 17 15 12 10 15 16 15 15 13 13 11 10 4 4 1 357 0 355 354 353 349 349 342 330 319 307 293 282 273 258 248 244 243 239 236 234 212 216 212 203 202
32 270 187 306 304 296 292 314 93 5 61 67 267 273 207 287 332 294 312 155 269 207 254 264 264 286 268 3 66 36 50 44 43 27 33 38 18 18 13 12 13 10 9 10 10 10 12 18 19 16 13 12 8 6 5 6 7 7 0 2 360 355 352 352 350 354 357 358 351 343 336 316 302 288 275 261 257 252 248 241 235 221 219 212 215 213
188 248 268 271 276 278 287 281 290 310 332 319 306 351 359 5 333 352 293 300 267 210 254 260 274 270 303 341 346 14 23 35 51 39 32 33 17 10 4 4 5 12 12 5 6 10 10 3 7 13 12 10 9 4 2 1 1 360 358 357 359 356 354 351 349 352 357 3 6 360 352 341 327 307 289 281 274 264 258 252 241 233 227 217 223 216
202 319 243 250 245 253 265 282 357 14 291 262 315 333 300 313 294 262 277 265 256 295 269 276 283 290 294 304 314 343 13 355 352 8 20 7 19 6 354 351 356 354 359 358 1 353 354 11 10 4 4 6 4 4 360 357 354 354 352 351 355 356 355 352 351 354 0 0 6 6 3 354 345 330 316 302 288 280 268 255 247 240 236 223 225 221
126 228 219 250 249 265 275 279 304 78 286 290 292 283 295 291 289 282 263 268 309 307 273 270 280 292 296 291 298 339 19 3 359 3 5 9 360 3 350 351 1 2 1 355 1 4 2 354 357 1 360 357 356 353 358 356 357 353 352 349 347 348 353 354 353 356 359 1 3 5 359 355 346 343 334 323 315 305 291 274 258 244 242 232 228 225
157 228 246 262 274 275 304 317 303 296 274 276 266 274 276 278 275 270 268 273 276 259 274 288 286 285 283 304 63 8 350 332 26 6 357 339 331 351 357 359 356 349 343 351 346 348 351 351 347 348 352 351 351 356 354 353 353 353 352 352 348 347 351 347 350 355 358 359 1 358 354 350 348 347 346 341 336 326 311 297 278 265 252 240 237 231
99 265 238 261 307 324 297 292 290 288 292 286 275 268 260 260 260 263 270 267 259 263 268 274 275 273 299 114 5 62 331 326 302 313 335 332 342 328 333 336 341 331 330 332 332 334 335 336 342 347 350 352 356 354 354 352 352 352 350 347 348 348 345 350 348 353 356 0 355 351 350 350 352 353 350 352 350 341 329 314 300 284 267 252 242 240
172 273 336 45 307 285 291 288 285 283 292 284 285 278 267 259 259 260 266 264 269 269 268 266 265 271 110 236 186 310 332 291 305 273 258 280 274 304 303 320 317 317 315 317 320 328 330 335 340 347 351 351 349 349 350 345 341 342 343 343 341 341 337 344 341 345 352 353 352 348 350 352 350 348 352 351 345 342 338 328 317 302 284 270 254 246
352 272 330 339 300 273 262 261 273 288 286 282 281 274 267 265 270 258 253 253 252 261 269 283 276 262 112 185 293 181 318 343 314 314 291 263 276 287 293 301 315 317 306 306 311 315 331 333 338 341 342 341 339 340 342 337 334 336 335 333 330 330 325 330 333 336 342 345 344 350 351 351 346 346 344 346 346 342 337 329 322 314 303 294 281 263
198 265 317 294 287 267 270 274 304 334 327 287 261 250 254 258 252 259 260 262 264 312 247 251 267 89 209 209 145 285 175 284 233 262 267 261 245 243 264 272 286 294 280 295 298 303 304 316 320 324 323 328 327 328 321 322 326 335 331 328 322 321 325 329 329 330 337 341 344 347 348 346 349 343 342 340 338 337 336 336 330 326 321 306 291 292
214 227 247 187 246 274 275 299 54 344 269 254 254 200 202 240 245 246 251 226 234 209 216 53 138 159 162 204 204 229 229 228 240 258 252 254 252 247 256 267 273 277 275 267 275 277 283 286 296 301 305 303 304 300 298 305 313 319 318 315 320 324 324 330 328 332 334 339 341 343 344 345 344 343 339 337 335 335 335 336 334 324 312 303 297 279
229 224 226 172 241 257 288 15 304 257 257 264 345 283 298 209 170 226 252 185 198 131 109 107 190 200 217 190 212 225 227 236 240 249 268 250 226 235 248 271 278 278 277 277 275 277 280 287 287 293 297 306 304 308 312 314 315 324 321 322 322 321 324 326 327 328 337 337 336 338 341 342 341 337 336 336 335 335 333 333 329 330 328 326 315 305
233 232 196 260 186 7 156 217 238 240 184 284 276 232 355 70 69 68 305 232 240 183 152 166 230 216 239 237 238 228 223 242 252 256 260 258 224 226 248 261 276 273 272 271 271 277 283 286 288 290 291 286 301 302 312 307 314 324 317 317 314 316 318 316 319 321 330 335 333 335 334 336 333 331 329 330 332 332 331 328 326 323 325 323 314 298
226 206 164 250 222 227 226 200 240 320 315 297 292 246 149 166 185 163 229 279 188 212 164 193 239 227 237 242 246 251 245 327 283 278 259 238 224 215 225 248 250 253 255 260 258 260 263 269 279 278 279 286 286 292 296 305 312 313 313 314 310 312 311 315 314 318 327 328 329 327 330 329 327 324 322 324 325 324 323 323 321 320 321 317 310 306
201 201 219 214 265 216 245 270 273 249 255 288 238 289 325 200 146 225 101 286 159 219 203 214 234 236 232 242 245 244 81 3 294 280 253 224 214 220 237 238 248 252 253 258 267 266 264 263 267 274 272 278 282 279 286 293 308 310 309 306 309 311 311 313 309 314 323 322 323 323 324 325 320 320 320 321 321 318 314 310 303 301 315 314 314 313
204 207 214 216 250 261 256 253 261 270 253 169 242 198 246 202 169 143 74 283 201 191 237 198 233 242 230 229 243 155 129 241 261 273 266 217 238 237 236 243 240 240 241 241 246 258 264 261 259 267 273 273 280 283 285 286 299 306 300 301 303 302 302 304 306 313 320 319 317 317 318 317 316 313 312 310 309 310 309 307 301 295 291 281 283 289
123 203 194 230 229 239 254 254 255 240 209 283 191 250 226 150 150 64 317 301 121 236 237 197 221 236 245 231 220 175 190 235 263 266 256 233 218 225 219 238 247 250 250 248 245 240 248 261 276 276 268 265 266 275 284 291 297 293 294 293 294 295 292 293 297 304 309 309 309 310 313 312 311 309 307 307 302 303 299 297 298 294 292 281 262 266
325 338 180 210 237 242 243 259 267 264 260 236 236 228 172 190 89 284 258 249 187 208 240 202 222 238 232 236 188 201 218 223 248 264 271 271 274 273 263 249 244 243 248 249 247 243 243 249 252 259 261 262 271 279 280 285 292 287 286 289 290 282 284 288 292 301 303 304 304 305 305 307 306 308 306 301 300 298 296 292 289 290 286 285 280 270
317 109 302 278 222 234 234 253 249 278 240 199 274 161 174 79 263 243 242 151 216 268 233 198 236 242 238 229 224 217 238 245 257 268 275 272 265 262 266 265 265 268 257 253 260 256 247 262 266 269 275 274 278 279 278 280 282 280 283 284 278 277 290 289 290 295 301 299 297 299 300 302 304 302 301 301 303 303 297 294 289 283 280 276 279 280
210 126 232 223 225 243 206 248 265 260 335 101 199 67 275 140 233 166 257 263 251 293 306 293 234 254 233 252 238 242 255 270 270 267 265 268 269 268 266 265 261 256 265 280 287 275 271 282 278 273 274 283 284 284 279 282 282 284 284 279 274 288 290 289 294 298 297 294 292 292 295 297 301 301 303 301 301 298 292 291 291 287 281 280 280 277
247 267 248 250 191 256 220 235 209 209 158 241 80 238 244 232 271 302 316 301 299 291 291 290 265 250 245 234 248 263 269 273 277 273 270 269 266 266 265 266 274 290 291 283 265 282 304 279 280 283 283 282 278 276 274 275 278 279 279 275 285 300 290 294 296 298 295 292 289 289 290 293 293 293 293 295 295 291 284 283 283 281 276 269 264 271
208 197 208 236 229 177 201 240 243 186 266 263 183 252 262 276 282 281 280 275 285 287 275 264 274 269 243 240 254 266 278 272 268 269 271 271 278 283 290 295 299 297 299 301 301 310 321 289 289 288 286 282 277 272 270 259 262 271 271 275 296 292 296 294 295 293 289 288 287 286 287 290 288 287 290 289 287 285 284 281 279 279 273 252 257 251
256 212 195 4 250 247 247 252 273 293 280 279 274 266 266 271 277 280 274 283 265 268 275 275 271 268 273 271 272 274 266 272 281 287 297 313 314 308 316 317 314 307 297 298 301 311 306 300 291 286 286 290 285 279 270 261 249 262 269 284 288 288 287 288 288 286 282 282 283 285 289 290 289 287 284 282 280 277 273 274 278 275 277 262 255 253
244 244 200 228 273 287 266 255 244 249 260 266 267 272 274 266 266 276 282 268 279 292 293 290 296 294 293 301 287 283 286 302 314 317 326 317 313 310 311 308 302 299 299 302 303 317 309 299 296 291 290 290 290 290 282 270 261 260 275 285 291 291 285 283 282 281 282 281 282 283 282 281 284 287 288 284 282 275 272 270 266 265 264 261 256 256
283 217 206 237 250 232 256 259 259 249 248 259 262 271 276 278 275 267 272 312 318 327 22 10 6 14 2 350 357 337 309 323 336 322 314 306 302 304 307 305 305 307 302 298 303 309 296 291 287 289 291 288 289 294 293 287 282 282 284 287 291 287 284 281 280 283 283 284 286 285 284 282 278 278 282 279 278 282 282 275 266 263 261 260 254 250
224 67 221 185 219 247 262 268 264 270 275 267 265 258 256 269 286 309 18 41 25 17 1 24 49 8 22 355 0 344 321 305 310 305 300 298 299 302 306 308 307 304 305 311 313 309 296 296 294 289 288 285 290 296 295 292 291 291 297 300 302 301 300 291 289 286 285 284 285 282 282 281 281 280 279 280 277 268 267 276 281 277 275 262 251 249
126 249 244 126 258 261 256 262 263 284 278 274 260 255 263 9 12 360 42 40 29 19 2 344 343 12 347 358 353 318 300 299 310 318 301 298 297 303 311 313 311 309 308 310 310 304 301 296 293 293 293 292 298 298 295 296 296 300 309 320 320 321 308 299 294 289 283 281 279 279 281 281 279 277 277 277 280 282 280 266 266 267 269 276 268 256
207 235 236 240 242 257 256 255 249 230 261 260 292 96 64 21 25 40 40 37 24 24 3 354 329 330 330 325 328 309 302 309 312 322 305 300 298 305 308 309 311 312 311 314 313 309 308 306 306 304 299 299 306 303 304 302 301 303 307 313 311 308 299 293 289 285 282 281 277 277 279 281 282 281 279 277 277 278 278 286 281 267 264 264 269 269